Location: Ban Gâvre
(47.6986°N, 3.3516°W)
Time: 13:18:59
(UTC+00:00)

Daily predictions for brighter satellites

Satellite Brightness Start Highest point End
(mag) Time Altitude Azimuth Time Altitude Azimuth Time Altitude Azimuth
ATLAS 2AS CENTAUR R/B 3.7 20:41:48 10° NW 20:48:19 41° WSW 20:54:27 10° S
Terra 3.3 20:45:09 10° ESE 20:48:57 24° ENE 20:52:45 10° N
SPOT 3 Rocket 3.9 20:45:29 10° SE 20:50:32 54° ENE 20:55:39 10° N
SPOT 5 3.6 20:47:43 10° SE 20:51:33 32° ENE 20:55:24 10° N
USA 276 2.8 20:48:46 10° WNW 20:51:45 51° N 20:54:43 10° ENE
RESURS DK-1 2.5 20:47:50 10° NNW 20:51:59 76° WSW 20:56:06 10° SSE
Cosmos 1544 Rocket 4.0 20:48:24 10° NNW 20:52:42 63° W 20:57:00 10° S
FALCON 9 DEB 4.3 20:50:09 10° WNW 20:53:13 37° NNE 20:56:18 10° E
Cosmos 1271 Rocket 3.6 20:50:43 10° NNW 20:54:35 52° W 20:58:23 10° S
Cosmos 1455 2.8 20:51:08 10° NNW 20:54:53 57° W 20:58:38 10° S
SL-24 R/B 4.4 20:53:39 10° SSE 20:58:07 87° ENE 21:03:22 10° NNW
Cosmos 1850 Rocket 4.1 20:53:52 10° NNW 20:59:05 82° WSW 21:04:15 10° SSE
Cosmos 1331 Rocket 4.2 20:57:06 10° S 21:02:16 56° ESE 21:07:28 10° NNE
IRAS Rocket 4.3 20:57:13 10° NNE 21:02:45 60° ESE 21:08:12 10° S
Cosmos 2082 Rocket 3.1 20:58:36 10° SSE 21:03:26 29° ESE 21:08:17 10° NE
Cosmos 2074 Rocket 4.0 20:57:36 10° N 21:03:55 77° E 21:10:08 10° SSE
Cosmos 2360 4.3 21:00:18 10° NNW 21:06:05 82° ENE 21:11:49 10° SSE
Helios 1A Rocket 3.6 21:05:01 10° SE 21:08:51 40° ENE 21:12:43 10° N
Spot 2 Rocket 3.9 21:04:21 10° SE 21:09:16 52° ENE 21:14:14 10° N
Cosmos 2084 Rocket 3.3 21:06:07 10° NW 21:10:01 79° NE 21:13:53 11° SE
Lacrosse 5 4.2 21:10:24 10° W 21:13:17 15° WSW 21:16:10 10° SSW
Nadezhda 1 Rocket 4.1 21:08:25 10° SSE 21:14:17 54° E 21:20:11 10° NNE
GEOS 3 Rocket 4.1 21:09:42 10° SSE 21:14:40 53° SW 21:19:42 10° NW
SPOT 1/Viking Rocket 4.4 21:14:05 10° S 21:19:05 50° W 21:24:07 10° NNW
X-37B 1.8 21:21:35 10° WSW 21:23:55 23° SSW 21:25:27 15° SSE
ERS-1 Rocket 3.1 21:22:07 11° SSE 21:26:49 64° ENE 21:31:49 10° N
Cosmos 1452 Rocket 4.3 21:22:51 10° SW 21:28:01 56° WNW 21:33:12 10° NNE
Cosmos 1892 4.2 21:26:27 14° SE 21:28:34 21° E 21:31:28 10° NE
Meteor 1-21 Rocket 4.2 21:25:24 10° S 21:31:00 78° E 21:36:45 10° NNE
Cosmos 1110 Rocket 4.2 21:26:08 10° SSW 21:31:24 79° WNW 21:36:45 10° NNE
Cosmos 1302 Rocket 4.2 21:29:21 10° S 21:34:23 52° ESE 21:39:25 10° NNE
Cosmos 2228 3.2 21:30:52 10° NNW 21:35:04 68° W 21:39:17 10° S
Cosmos 192 4.3 21:32:47 10° S 21:37:36 63° ESE 21:42:28 10° NNE
Cosmos 2154 Rocket 4.1 21:32:03 10° N 21:38:18 85° W 21:44:29 10° S
Cosmos 1892 Rocket 3.9 21:38:01 13° SSE 21:41:40 49° E 21:45:53 10° NNE
Cosmos 968 Rocket 3.5 21:37:05 10° NNW 21:42:19 76° ENE 21:46:30 16° SSE
Cosmos 1697 Rocket 3.3 21:39:21 10° NW 21:44:48 52° WSW 21:49:50 12° S
Cosmos 1980 Rocket 2.2 21:39:52 10° NNW 21:45:36 86° ENE 21:50:07 17° SSE
SL-16 R/B 3.5 21:43:05 10° NNW 21:48:06 31° NE 21:52:57 11° ESE
Cosmos 2058 Rocket 3.4 21:45:59 10° N 21:50:20 52° ENE 21:53:20 19° SSE
Cosmos 1408 2.9 21:48:45 20° SSE 21:50:43 42° E 21:54:00 10° NNE
ATLAS 5 CENTAUR R/B 1.9 21:50:51 16° S 21:53:11 32° ESE 21:56:49 10° NE
SL-8 Rocket 4.3 21:47:24 10° N 21:53:29 52° ENE 21:58:01 18° SSE
Cosmos 2369 3.8 21:48:18 10° NNW 21:54:02 76° WSW 21:58:31 17° SSE
Resurs 01 Rocket 4.1 21:51:20 10° SW 21:54:22 18° W 21:57:26 10° NW
CZ-2C R/B 3.6 21:50:08 10° NNE 21:54:42 72° ESE 21:58:48 12° S
USA 267 4.2 21:50:34 10° ENE 21:55:43 24° SE 21:59:31 15° SSE
SJ 16-02 3.3 21:57:11 10° N 22:00:25 19° NE 22:03:35 10° E
COSMOS 2406 3.4 21:57:46 10° SSW 22:03:33 76° WNW 22:09:19 10° NNE
Cosmos 1833 Rocket 3.9 22:03:40 10° SW 22:09:00 44° NW 22:14:24 10° NNE
Cosmos 1825 3.0 22:08:00 24° SE 22:09:26 33° E 22:12:51 10° NNE
Cosmos 1867 3.8 22:06:19 10° NW 22:11:44 64° WSW 22:15:18 21° SSE
Cosmos 2366 rocket 4.2 22:07:36 10° N 22:13:55 63° ENE 22:18:15 21° SSE
Cosmos 1869 3.8 22:12:50 10° N 22:16:37 46° ENE 22:18:25 26° SE
Cosmos 2218 Rocket 4.1 22:13:59 10° N 22:20:25 70° E 22:24:43 22° SSE
Cosmos 2322 Rocket 3.2 22:17:00 10° NNW 22:22:18 38° NE 22:26:28 16° ESE
GP-B 3.1 22:19:30 10° N 22:23:57 72° E 22:26:27 26° S
Meteor 1-27 4.2 22:18:27 10° N 22:24:01 71° ENE 22:27:27 24° SSE
ARIANE 5 R/B 2.9 22:21:46 21° S 22:24:37 63° W 22:29:01 10° NNW
Terra 2.5 22:22:57 17° SSW 22:26:26 47° W 22:31:03 10° NNW
USA 276 1.8 22:24:36 10° WNW 22:27:38 86° SSW 22:28:42 37° ESE
SAR-Lupe-4 3.8 22:24:51 10° NNE 22:28:22 51° ESE 22:29:35 34° SSE
FALCON 9 DEB 3.0 22:26:23 10° WNW 22:29:37 62° SSW 22:30:31 41° SSE
SPOT 5 4.2 22:26:09 11° SSW 22:29:40 28° W 22:33:25 10° NW
Cosmos 1959 Rocket 4.4 22:24:22 10° N 22:30:31 78° E 22:34:27 24° SSE
USA 234 4.0 22:25:02 10° E 22:31:19 51° NNE 22:37:37 10° NW
BREEZE-M DEB (TANK) 3.4 22:32:32 10° W 22:35:16 74° N 22:44:12 10° E
Cosmos 2278 3.9 22:30:15 10° NNW 22:35:57 68° WSW 22:39:18 25° S
Cosmos 1633 3.2 22:39:00 33° ESE 22:39:38 36° E 22:42:51 10° NNE
Cosmos 2341 Rocket 4.3 22:33:27 10° NNW 22:39:41 64° W 22:44:11 19° S
Cosmos 864 Rocket 4.5 22:34:19 10° N 22:40:34 89° W 22:44:32 24° S
Cosmos 1992 Rocket 3.9 22:37:42 16° SSW 22:41:52 87° ESE 22:47:09 10° NNE
Cosmos 2333 Rocket 3.9 22:38:09 10° N 22:42:58 26° NE 22:47:45 10° ESE
Okean 1-7 Rocket 3.5 22:40:57 27° S 22:43:24 85° E 22:47:56 10° N
Cosmos 1758 Rocket 4.3 22:42:25 29° SE 22:43:51 38° E 22:47:57 10° NNE
SAR-Lupe-1 4.0 22:41:33 10° NNE 22:45:09 86° WNW 22:46:41 32° SSW
Cosmos 2082 Rocket 3.0 22:41:42 10° SW 22:47:15 51° WNW 22:52:50 10° NNE
Cosmos 1486 Rocket 4.1 22:42:07 10° NNW 22:47:20 69° WSW 22:50:04 28° S
ASTEX 1 3.6 22:42:55 10° N 22:47:56 73° W 22:51:09 22° SSW
Cosmos 1606 3.7 22:49:35 10° N 22:53:10 35° ENE 22:54:21 28° ESE
Cosmos-2242 3.3 22:49:27 10° N 22:53:36 52° ENE 22:55:10 33° SE
Cosmos 1812 Rocket 3.6 22:49:55 10° N 22:54:23 68° E 22:56:09 35° SSE
Cosmos 2360 Rocket 3.0 22:51:24 10° NNW 22:56:52 45° NE 23:00:32 20° ESE
ADEOS Rocket 4.0 22:53:14 21° SE 22:58:15 54° ENE 23:05:46 10° N
Gbstr 26 Del rocket 3.5 22:59:00 36° SE 22:59:06 36° SE 23:03:28 10° ENE
Cosmos 1340 Rocket 4.4 22:58:42 20° E 22:59:15 20° E 23:02:11 10° NE
Cosmos 807 3.9 22:59:13 10° N 23:02:12 79° W 23:02:30 67° SSW
Cosmos 1892 4.3 23:01:16 14° SW 23:03:57 30° WNW 23:07:19 10° N
Cosmos 2181 Rocket 4.3 23:01:56 17° SSW 23:06:40 63° WNW 23:12:54 10° N
Cosmos 1602 Rocket 3.4 23:05:35 36° S 23:07:18 87° ESE 23:11:40 10° N
Cosmos 1821 Rocket 4.0 23:01:54 10° N 23:08:09 77° E 23:11:22 30° SSE
Cosmos 44 4.0 23:14:09 30° ESE 23:14:25 30° ESE 23:18:21 10° NE
Cosmos 1354 Rocket 4.0 23:11:58 10° NNW 23:17:18 78° WSW 23:19:33 35° S
Cosmos 2237 4.2 23:13:59 10° NNW 23:19:46 89° WSW 23:22:29 33° SSE
ERS-2 3.7 23:20:09 10° NE 23:22:56 21° E 23:22:56 21° E
ALOS 2 2.8 23:21:37 38° SE 23:23:10 65° ENE 23:27:31 10° N
CENTAUR R/B 4.2 23:22:31 14° ESE 23:23:30 14° ESE 23:26:43 10° ENE
Spot 4 3.8 23:21:49 37° S 23:23:42 81° WSW 23:28:32 10° NNW
Cosmos 1503 Rocket 4.3 23:20:35 10° NNW 23:25:44 54° WSW 23:27:51 33° SSW
Cosmos 1980 Rocket 4.3 23:25:27 10° WNW 23:28:48 16° W 23:31:53 11° SW
COSMOS 2428 4.3 23:24:32 10° NNW 23:29:29 29° NE 23:34:25 10° ESE
Cosmos 1777 Rocket 3.9 23:25:37 10° NNW 23:30:57 88° WSW 23:33:07 37° SSE
Cosmos 2058 3.0 23:29:58 46° SSE 23:30:58 62° E 23:35:07 10° NNE
Nadezhda 3 Rocket 3.9 23:28:02 31° S 23:31:12 84° E 23:37:24 10° N
H-2A R/B 3.5 23:27:35 10° NNE 23:31:46 63° ESE 23:32:48 46° SSE
SL-16 R/B 2.5 23:26:58 10° NW 23:32:30 53° WSW 23:34:48 33° SSW
Cosmos 2219 Rocket 3.3 23:27:16 10° NNW 23:32:36 39° NE 23:36:40 16° ESE
Cosmos 1953 Rocket 4.1 23:33:03 38° SE 23:34:10 47° E 23:38:24 10° NNE
ATLAS 5 CENTAUR R/B 3.1 23:34:09 10° WSW 23:37:39 32° NW 23:41:36 10° NNE
SJ 16-02 1.6 23:35:00 10° NNW 23:39:20 56° WSW 23:40:31 41° SSW
USA 267 3.2 23:32:51 10° NE 23:39:26 78° SE 23:45:58 10° SW
SL-4 R/B 1.4 23:40:05 59° SW 23:40:39 79° SSE 23:44:19 10° ENE
Meteor 2-2 Rocket 4.4 23:35:18 10° N 23:41:21 82° ENE 23:44:11 34° SSE
Cosmos 1825 Rocket 3.4 23:41:10 46° S 23:42:25 88° ESE 23:46:48 10° N
Cosmos 1825 4.4 23:42:36 12° WSW 23:44:53 19° WNW 23:47:40 10° NNW
Cosmos 2221 3.0 23:46:38 10° N 23:50:55 53° ENE 23:52:14 38° SE
PSLV R/B 4.5 23:49:55 10° NNE 23:54:24 41° E 23:55:36 34° SE
